Eielson Air Force Base, AK

2:34 PM AKDT on September 26, 2016 (GMT -0800)
Eielson Air Force Base

Weather History for PAEI - July, 2013

Change the Weather History Date:

Friday, July 19, 2013

  Actual Average Record
Temperature  
Mean Temperature 58 °F -  
Max Temperature 62 °F 69 °F 84 °F (2001)
Min Temperature 56 °F 50 °F 42 °F (1959)
Degree Days  
Heating Degree Days 6    
Growing Degree Days 8 (Base 50)    
Moisture  
Dew Point 55 °F    
Average Humidity 90    
Maximum Humidity 100    
Minimum Humidity 77    
Precipitation  
Precipitation 0.17 in - - ()
Sea Level Pressure  
Sea Level Pressure 30.11 in    
Wind  
Wind Speed 6 mph (WSW)    
Max Wind Speed 13 mph    
Max Gust Speed 23 mph    
Visibility 8 miles    
Events Rain    
Averages and records for this station are not official NWS values.
T = Trace of Precipitation, MM = Missing Value Source: NWS Daily Summary

Daily Weather History Graph

Daily Weather History Graph

Search for Another Location

Airport or City:

Trip Planner

Search our weather history database for the weather conditions in past years. The results will help you decide how hot, cold, wet, or windy it might be!

Date:

Astronomy

Jul. 19, 2013 Rise Set
Actual Time 4:07 AM AKDT 11:39 PM AKDT
Civil Twilight 2:27 AM AKDT 1:22 AM AKDT
Nautical Twilight Sun does not set Sun does not set
Astronomical Twilight Sun does not set Sun does not set
Moon 8:43 PM AKDT (7/19) 1:12 AM AKDT (7/19)
Length of Visible Light 22h 55m
Length of Day
19h 31m
Waxing Gibbous, 88% of the Moon is Illuminated
Jul 19
Waxing Gibbous
Jul 22
Full
Jul 29
Last Quarter
Aug 6
New
Aug 14
First Quarter

Hourly Weather History & Observations

Time (AKDT) Temp. Dew Point Humidity Pressure Visibility Wind Dir Wind Speed Gust Speed Precip Events Conditions
12:44 AM 57.2 °F 57.2 °F 100% 30.07 in 6.0 mi Variable 4.6 mph - N/A Rain Light Rain
12:55 AM 57.6 °F 57.0 °F 98% 30.07 in 4.0 mi Variable 5.8 mph - 0.02 in Rain Light Rain
1:23 AM 57.2 °F 57.2 °F 100% 30.08 in 5.0 mi Variable 5.8 mph - N/A Rain Light Rain
1:55 AM 57.4 °F 56.8 °F 98% 30.08 in 4.0 mi Variable 4.6 mph - 0.05 in Rain Light Rain
2:36 AM 57.2 °F 57.2 °F 100% 30.08 in 4.0 mi Calm Calm - N/A   Overcast
2:55 AM 57.2 °F 56.3 °F 97% 30.08 in 4.0 mi Calm Calm - 0.01 in Rain Light Rain
3:31 AM 57.2 °F 57.2 °F 100% 30.08 in 4.0 mi Calm Calm - N/A Rain Light Rain
3:55 AM 57.2 °F 56.7 °F 98% 30.08 in 4.0 mi Calm Calm - 0.01 in Rain Light Rain
4:41 AM 57.2 °F 55.4 °F 94% 30.09 in 6.0 mi Variable 3.5 mph - N/A   Overcast
4:55 AM 56.7 °F 56.1 °F 98% 30.09 in 6.0 mi Variable 4.6 mph - N/A   Overcast
4:59 AM 57.2 °F 55.4 °F 94% 30.09 in 6.0 mi Variable 3.5 mph - N/A   Overcast
5:38 AM 57.2 °F 57.2 °F 100% 30.09 in 9.0 mi Variable 3.5 mph - N/A   Overcast
5:55 AM 57.2 °F 56.3 °F 97% 30.09 in 10.0 mi Variable 3.5 mph - N/A   Overcast
6:20 AM 57.2 °F 55.4 °F 94% 30.08 in 10.0 mi Variable 3.5 mph - N/A   Overcast
6:37 AM 57.2 °F 55.4 °F 94% 30.09 in 10.0 mi Variable 3.5 mph - N/A   Overcast
6:55 AM 57.7 °F 56.3 °F 95% 30.09 in 10.0 mi Calm Calm - N/A   Mostly Cloudy
7:55 AM 59.0 °F 57.0 °F 93% 30.10 in 10.0 mi SW 6.9 mph - N/A   Overcast
8:55 AM 59.0 °F 56.7 °F 92% 30.11 in 10.0 mi WSW 10.4 mph - 0.00 in Rain Light Rain
9:23 AM 59.0 °F 55.4 °F 88% 30.11 in 9.0 mi West 8.1 mph - N/A Rain Light Rain
9:32 AM 59.0 °F 55.4 °F 88% 30.10 in 9.0 mi West 6.9 mph - N/A Rain Light Rain
9:55 AM 58.6 °F 56.1 °F 91% 30.11 in 10.0 mi WSW 8.1 mph - 0.02 in   Overcast
10:16 AM 59.0 °F 55.4 °F 88% 30.12 in 10.0 mi Variable 6.9 mph - N/A   Overcast
10:55 AM 58.6 °F 54.5 °F 86% 30.12 in 10.0 mi West 12.7 mph - N/A   Overcast
11:40 AM 57.2 °F 55.4 °F 94% 30.13 in 10.0 mi WSW 12.7 mph - N/A Rain Light Rain
11:55 AM 57.2 °F 54.9 °F 92% 30.13 in 10.0 mi West 12.7 mph 17.3 mph 0.00 in Rain Light Rain
12:55 PM 58.5 °F 55.2 °F 89% 30.13 in 10.0 mi WSW 9.2 mph - 0.01 in   Overcast
1:55 PM 60.1 °F 54.9 °F 83% 30.13 in 10.0 mi West 11.5 mph - 0.00 in   Overcast
2:39 PM 59.0 °F 55.4 °F 88% 30.13 in 5.0 mi West 10.4 mph - N/A Rain Light Rain
2:55 PM 58.6 °F 55.8 °F 90% 30.12 in 10.0 mi West 10.4 mph - 0.03 in   Overcast
3:38 PM 59.0 °F 55.4 °F 88% 30.13 in 10.0 mi West 11.5 mph - N/A Rain Light Rain
3:55 PM 59.0 °F 55.4 °F 88% 30.12 in 10.0 mi West 12.7 mph 19.6 mph 0.01 in   Overcast
4:05 PM 59.0 °F 55.4 °F 88% 30.13 in 10.0 mi West 8.1 mph - N/A   Overcast
4:55 PM 59.4 °F 55.9 °F 88% 30.12 in 10.0 mi WSW 10.4 mph 17.3 mph 0.00 in Rain Light Rain
5:08 PM 59.0 °F 55.4 °F 88% 30.12 in 8.0 mi WSW 9.2 mph 21.9 mph N/A Rain Light Rain
5:38 PM 59.0 °F 55.4 °F 88% 30.12 in 10.0 mi Variable 4.6 mph - N/A   Overcast
5:55 PM 59.7 °F 54.9 °F 84% 30.12 in 10.0 mi West 10.4 mph 19.6 mph 0.01 in   Overcast
6:55 PM 61.7 °F 54.7 °F 78% 30.11 in 10.0 mi West 10.4 mph 17.3 mph N/A   Overcast
7:45 PM 60.8 °F 55.4 °F 82% 30.11 in 10.0 mi WSW 12.7 mph 23.0 mph N/A   Overcast
7:55 PM 60.4 °F 54.7 °F 81% 30.11 in 10.0 mi West 12.7 mph 18.4 mph N/A   Overcast
8:36 PM 60.4 °F 54.7 °F 81% 30.17 in 10.0 mi West 12.7 mph 18.4 mph N/A   Overcast
8:55 PM 61.0 °F 53.8 °F 77% 30.10 in 10.0 mi West 11.5 mph - N/A   Overcast
9:42 PM 59.0 °F 53.6 °F 82% 30.11 in 10.0 mi SW 9.2 mph - N/A   Overcast
9:55 PM 59.5 °F 53.4 °F 80% 30.11 in 10.0 mi West 8.1 mph - N/A   Overcast
10:55 PM 59.0 °F 52.3 °F 79% 30.12 in 10.0 mi WNW 5.8 mph - N/A   Overcast
11:55 PM 57.4 °F 51.1 °F 79% 30.12 in 10.0 mi West 8.1 mph - N/A   Overcast